FLOCK 4P-11 (44809 NORAD) Tracking and Keplerian Element Data

This shows tracking and keplerian element data for the satellite.

Feedback or suggestion? Click here.




ElementValue
Catalog44809
NameFLOCK 4P-11
Epoch Orbit1936
Epoch Day93.70847316
Epoch Year2020
RAAN155.1192
Inclination97.5034
Eccentricity0.0014462
Argument of Perigee156.9923
Mean Anonmoly203.1963
Mean Motion15.19574194
Decay Rate2.066E-05
L11 44809U 19081F 20093.70847316 .00002066 00000-0 10018-3 0 9991
L22 44809 97.5034 155.1192 0014462 156.9923 203.1963 15.19574194 19360

Live tracking and technical data element details for FLOCK 4P-11 (NORAD 44809). FLOCK 4P-11 can be tracked NOW for your location showing map with azimuth and elevation plus other details from your city location.

Track the satellite on the map from your city or location and see movement details for azimuth, elevation, latitude, longitude, range, height, and movement on the map or in text.







IsCatalogInMostPopularTable: catalog: 44809, numindb: 49
Update: records affected: 1



GetName: 44809 FLOCK 4P-11

Hit Count: updated at: Sun, 05 Apr 2020 18:20:19 GMT